Satellite-Ground Cal/Val Region Overpasses Predictions

Prediction of Satellite NPP Overpassing Cal/Val Region: PacNW

Region Location: (Latitude: 10.00, Longitude: 139.50) to (Latitude: 22.70, Longitude: 165.60).

Table of predicted overpasses for the next 14.0 days since TLE Epoch: 4/26/2013
Interval Starting Time Starting Location Ending Time Ending Location
1 04/26/2013 15:29:46 ( 22.67, 152.20) 04/26/2013 15:33:21 ( 10.05, 149.20)
2 04/27/2013 02:38:51 ( 10.00, 159.72) 04/27/2013 02:42:27 ( 22.68, 156.70)
3 04/27/2013 15:10:44 ( 22.68, 156.96) 04/27/2013 15:14:19 ( 10.06, 153.96)
4 04/28/2013 02:19:50 ( 10.05, 164.47) 04/28/2013 02:23:25 ( 22.67, 161.46)
5 04/28/2013 14:51:43 ( 22.69, 161.72) 04/28/2013 14:55:19 ( 10.00, 158.70)
6 04/29/2013 03:42:19 ( 10.05, 143.85) 04/29/2013 03:45:54 ( 22.67, 140.85)
7 04/29/2013 14:33:43 ( 19.06, 165.59) 04/29/2013 14:36:17 ( 10.01, 163.46)
8 04/29/2013 16:14:11 ( 22.69, 141.11) 04/29/2013 16:16:03 ( 16.12, 139.51)
9 04/30/2013 03:23:17 ( 10.04, 148.61) 04/30/2013 03:26:52 ( 22.66, 145.60)
10 04/30/2013 15:55:10 ( 22.69, 145.87) 04/30/2013 15:58:46 ( 10.01, 142.85)
11 05/01/2013 03:04:16 ( 10.04, 153.37) 05/01/2013 03:07:51 ( 22.66, 150.36)
12 05/01/2013 15:36:09 ( 22.70, 150.63) 05/01/2013 15:39:45 ( 10.02, 147.60)
13 05/02/2013 02:45:14 ( 10.03, 158.13) 05/02/2013 02:48:49 ( 22.65, 155.12)
14 05/02/2013 15:17:08 ( 22.64, 155.37) 05/02/2013 15:20:43 ( 10.02, 152.36)
15 05/03/2013 02:26:13 ( 10.03, 162.89) 05/03/2013 02:29:48 ( 22.65, 159.88)
16 05/03/2013 14:58:07 ( 22.65, 160.13) 05/03/2013 15:01:42 ( 10.02, 157.12)
17 05/04/2013 02:09:40 ( 18.77, 165.60) 05/04/2013 02:10:46 ( 22.64, 164.64)
18 05/04/2013 03:48:41 ( 10.03, 142.27) 05/04/2013 03:52:00 ( 21.71, 139.50)
19 05/04/2013 14:39:05 ( 22.65, 164.89) 05/04/2013 14:42:40 ( 10.03, 161.88)
20 05/04/2013 16:20:35 ( 22.65, 139.51) 05/04/2013 16:20:35 ( 22.65, 139.51)
21 05/05/2013 03:29:40 ( 10.02, 147.03) 05/05/2013 03:33:15 ( 22.64, 144.02)
22 05/05/2013 16:01:34 ( 22.65, 144.27) 05/05/2013 16:05:09 ( 10.02, 141.26)
23 05/06/2013 03:10:38 ( 10.02, 151.79) 05/06/2013 03:14:13 ( 22.64, 148.78)
24 05/06/2013 15:42:32 ( 22.65, 149.03) 05/06/2013 15:46:07 ( 10.03, 146.02)
25 05/07/2013 02:51:37 ( 10.02, 156.55) 05/07/2013 02:55:13 ( 22.70, 153.53)
26 05/07/2013 15:23:31 ( 22.65, 153.79) 05/07/2013 15:27:06 ( 10.03, 150.78)
27 05/08/2013 02:32:35 ( 10.02, 161.31) 05/08/2013 02:36:11 ( 22.70, 158.29)
28 05/08/2013 15:04:29 ( 22.65, 158.55) 05/08/2013 15:08:04 ( 10.03, 155.54)
29 05/09/2013 02:14:09 ( 12.08, 165.59) 05/09/2013 02:17:09 ( 22.64, 163.06)
30 05/09/2013 03:55:04 ( 10.03, 140.69) 05/09/2013 03:56:31 ( 15.14, 139.50)


NCC Satellite Cal/Val Overpasses Prediction Service
